,,Stat5,,Stat1,,Stat2,,Stat3,,Stat4,,Wind1,,Wind1,
time,status,PA1M_AVG,status,PR1M_SUM,status,RH1M_AVG,status,SR1M_AVG,status,TA1M_AVG,status,W1dAve1m,status,W1sAve1m,
2003-05-06, 00:00:00,VALID,916.373,VALID,0,VALID,98.9105,VALID,0.288674,VALID,21.6657,VALID,24,VALID,0.191934,
2003-05-06, 00:01:00,VALID,916.359,VALID,0,VALID,98.791,VALID,0.254712,VALID,21.6293,VALID,24,VALID,0.149877,
2003-05-06, 00:02:00,VALID,916.349,VALID,0.2,VALID,98.8812,VALID,0.305655,VALID,21.626,VALID,24,VALID,0.380859,
2003-05-06, 00:03:00,VALID,916.341,VALID,0,VALID,98.9258,VALID,0.271693,VALID,21.6554,VALID,24,VALID,0.118421,
2003-05-06, 00:04:00,VALID,916.34,VALID,0,VALID,98.9321,VALID,0.271693,VALID,21.6481,VALID,24,VALID,0.0625,
2003-05-06, 00:05:00,VALID,916.335,VALID,0,VALID,98.9626,VALID,0.237732,VALID,21.6746,VALID,28,VALID,0.508008,
2003-05-06, 00:06:00,VALID,916.335,VALID,0.2,VALID,99.002,VALID,0.339617,VALID,21.6843,VALID,31,VALID,0.482171,
2003-05-06, 00:07:00,VALID,916.333,VALID,0,VALID,98.9906,VALID,0.271693,VALID,21.6843,VALID,31,VALID,0.468539,
2003-05-06, 00:08:00,VALID,916.324,VALID,0,VALID,99.0338,VALID,0.271693,VALID,21.691,VALID,31,VALID,0.387747,
2003-05-06, 00:09:00,VALID,916.295,VALID,0,VALID,99.0733,VALID,0.288674,VALID,21.7037,VALID,30,VALID,0.550781,
2003-05-06, 00:10:00,VALID,916.276,VALID,0,VALID,99.0911,VALID,0.475463,VALID,21.7112,VALID,26,VALID,0.802787,
2003-05-06, 00:11:00,VALID,916.26,VALID,0,VALID,99.1127,VALID,0.356597,VALID,21.715,VALID,13,VALID,0.695898,
2003-05-06, 00:12:00,VALID,916.234,VALID,0.2,VALID,99.1546,VALID,0.390559,VALID,21.7179,VALID,27,VALID,0.9373,
2003-05-06, 00:13:00,VALID,916.222,VALID,0,VALID,99.1915,VALID,0.373578,VALID,21.7441,VALID,19,VALID,0.973514,
2003-05-06, 00:14:00,VALID,916.231,VALID,0,VALID,99.1966,VALID,0.424521,VALID,21.7371,VALID,22,VALID,1.05828,
2003-05-06, 00:15:00,VALID,916.229,VALID,0,VALID,99.1699,VALID,0.339617,VALID,21.7142,VALID,22,VALID,1,
2003-05-06, 00:16:00,VALID,916.247,VALID,0,VALID,99.1216,VALID,0.390559,VALID,21.6918,VALID,19,VALID,0.932546,
2003-05-06, 00:17:00,VALID,916.273,VALID,0,VALID,99.1318,VALID,0.322636,VALID,21.6985,VALID,19,VALID,0.835321,
2003-05-06, 00:18:00,VALID,916.301,VALID,0,VALID,99.0822,VALID,0.305655,VALID,21.66,VALID,8,VALID,1.1262,
2003-05-06, 00:19:00,VALID,916.302,VALID,0,VALID,99.0249,VALID,0.40754,VALID,21.6279,VALID,12,VALID,1.16406,
2003-05-06, 00:20:00,VALID,916.315,VALID,0,VALID,99.0122,VALID,0.390559,VALID,21.5983,VALID,7,VALID,0.88742,
2003-05-06, 00:21:00,VALID,916.323,VALID,0,VALID,98.9652,VALID,0.373578,VALID,21.5689,VALID,11,VALID,0.822852,
2003-05-06, 00:22:00,VALID,916.301,VALID,0,VALID,98.9652,VALID,0.424521,VALID,21.5629,VALID,22,VALID,1.04828,
2003-05-06, 00:23:00,VALID,916.283,VALID,0,VALID,99.0275,VALID,0.356597,VALID,21.5602,VALID,357,VALID,0.828125,
2003-05-06, 00:24:00,VALID,916.272,VALID,0.2,VALID,99.0084,VALID,0.356597,VALID,21.5473,VALID,344,VALID,0.479779,
2003-05-06, 00:25:00,VALID,916.235,VALID,0,VALID,99.0097,VALID,0.220751,VALID,21.5422,VALID,2,VALID,0.716488,
2003-05-06, 00:26:00,VALID,916.21,VALID,0,VALID,99.0745,VALID,0.237732,VALID,21.539,VALID,14,VALID,0.589949,
2003-05-06, 00:27:00,VALID,916.189,VALID,0,VALID,99.1063,VALID,0.237732,VALID,21.5522,VALID,15,VALID,0.638091,
2003-05-06, 00:28:00,VALID,916.154,VALID,0,VALID,99.1585,VALID,0.237732,VALID,21.5713,VALID,15,VALID,0.379764,
2003-05-06, 00:29:00,VALID,916.128,VALID,0,VALID,99.1763,VALID,0.20377,VALID,21.5778,VALID,15,VALID,0.020148,
2003-05-06, 00:30:00,VALID,916.083,VALID,0,VALID,99.1966,VALID,0.288674,VALID,21.574,VALID,10,VALID,0.0293997,
2003-05-06, 00:31:00,VALID,916.031,VALID,0,VALID,99.1674,VALID,0.254712,VALID,21.5675,VALID,289,VALID,0.15408,
2003-05-06, 00:32:00,VALID,915.987,VALID,0,VALID,99.1788,VALID,0.220751,VALID,21.5745,VALID,289,VALID,0.00078125,
2003-05-06, 00:33:00,VALID,915.943,VALID,0,VALID,99.1635,VALID,0.20377,VALID,21.5484,VALID,289,VALID,0.132595,
2003-05-06, 00:34:00,VALID,915.897,VALID,0,VALID,99.175,VALID,0.288674,VALID,21.5546,VALID,289,VALID,0.266426,
2003-05-06, 00:35:00,VALID,915.867,VALID,0,VALID,99.1457,VALID,0.220751,VALID,21.5322,VALID,289,VALID,0.108203,
2003-05-06, 00:36:00,VALID,915.846,VALID,0,VALID,99.208,VALID,0.237732,VALID,21.5355,VALID,289,VALID,0.169872,
2003-05-06, 00:37:00,VALID,915.835,VALID,0,VALID,99.2297,VALID,0.220751,VALID,21.5484,VALID,289,VALID,0,
2003-05-06, 00:38:00,VALID,915.828,VALID,0,VALID,99.2258,VALID,0.152827,VALID,21.5384,VALID,289,VALID,0.158995,
2003-05-06, 00:39:00,VALID,915.823,VALID,0,VALID,99.1381,VALID,0.271693,VALID,21.5098,VALID,289,VALID,0.2875,
2003-05-06, 00:40:00,VALID,915.818,VALID,0,VALID,99.1381,VALID,0.305655,VALID,21.4659,VALID,289,VALID,0.00859375,
2003-05-06, 00:41:00,VALID,915.822,VALID,0,VALID,99.1775,VALID,0.288674,VALID,21.4656,VALID,289,VALID,0,
2003-05-06, 00:42:00,VALID,915.827,VALID,0,VALID,99.2119,VALID,0.237732,VALID,21.4694,VALID,289,VALID,0,
2003-05-06, 00:43:00,VALID,915.826,VALID,0,VALID,99.1521,VALID,0.271693,VALID,21.453,VALID,289,VALID,0.0386719,
2003-05-06, 00:44:00,VALID,915.82,VALID,0,VALID,99.1597,VALID,0.339617,VALID,21.44,VALID,289,VALID,0.000200321,
2003-05-06, 00:45:00,VALID,915.809,VALID,0.2,VALID,99.1801,VALID,0.271693,VALID,21.4565,VALID,289,VALID,0.00546875,
2003-05-06, 00:46:00,VALID,915.79,VALID,0,VALID,99.1928,VALID,0.220751,VALID,21.4368,VALID,289,VALID,0,
2003-05-06, 00:47:00,VALID,915.749,VALID,0,VALID,99.264,VALID,0.20377,VALID,21.4756,VALID,289,VALID,0.0434451,
2003-05-06, 00:48:00,VALID,915.701,VALID,0,VALID,99.2818,VALID,0.254712,VALID,21.5276,VALID,289,VALID,0.015625,
2003-05-06, 00:49:00,VALID,915.66,VALID,0,VALID,99.3021,VALID,0.305655,VALID,21.5438,VALID,333,VALID,0.4377,
2003-05-06, 00:50:00,VALID,915.629,VALID,0,VALID,99.3085,VALID,0.305655,VALID,21.5627,VALID,14,VALID,0.633984,
2003-05-06, 00:51:00,VALID,915.599,VALID,0,VALID,99.3174,VALID,0.305655,VALID,21.5993,VALID,20,VALID,0.520389,
2003-05-06, 00:52:00,VALID,915.57,VALID,0,VALID,99.3238,VALID,0.186789,VALID,21.6088,VALID,21,VALID,0.448289,
2003-05-06, 00:53:00,VALID,915.529,VALID,0,VALID,99.3517,VALID,0.305655,VALID,21.6314,VALID,21,VALID,0.377111,
2003-05-06, 00:54:00,VALID,915.507,VALID,0,VALID,99.3517,VALID,0.237732,VALID,21.6379,VALID,21,VALID,0.347561,
2003-05-06, 00:55:00,VALID,915.477,VALID,0,VALID,99.2932,VALID,0.254712,VALID,21.5993,VALID,21,VALID,0.388148,
2003-05-06, 00:56:00,VALID,915.455,VALID,0,VALID,99.2754,VALID,0.322636,VALID,21.6026,VALID,21,VALID,0.061022,
2003-05-06, 00:57:00,VALID,915.417,VALID,0,VALID,99.2373,VALID,0.20377,VALID,21.5861,VALID,21,VALID,0,
2003-05-06, 00:58:00,VALID,915.404,VALID,0,VALID,99.2665,VALID,0.271693,VALID,21.6058,VALID,21,VALID,0,
2003-05-06, 00:59:00,VALID,915.375,VALID,0,VALID,99.2754,VALID,0.237732,VALID,21.6187,VALID,21,VALID,0,
2003-05-06, 01:00:00,VALID,915.347,VALID,0,VALID,99.1915,VALID,0.254712,VALID,21.5926,VALID,21,VALID,0,
2003-05-06, 01:01:00,VALID,915.33,VALID,0,VALID,99.1686,VALID,0.20377,VALID,21.5673,VALID,21,VALID,0,
2003-05-06, 01:02:00,VALID,915.311,VALID,0,VALID,99.1546,VALID,0.237732,VALID,21.5635,VALID,21,VALID,0,
2003-05-06, 01:03:00,VALID,915.295,VALID,0,VALID,99.0593,VALID,0.220751,VALID,21.5206,VALID,21,VALID,0,
2003-05-06, 01:04:00,VALID,915.28,VALID,0,VALID,99.0071,VALID,0.271693,VALID,21.5085,VALID,21,VALID,0.0830592,
2003-05-06, 01:05:00,VALID,915.26,VALID,0,VALID,98.9931,VALID,0.237732,VALID,21.4729,VALID,21,VALID,0,
2003-05-06, 01:06:00,VALID,915.244,VALID,0,VALID,98.9537,VALID,0.254712,VALID,21.4629,VALID,21,VALID,0,
2003-05-06, 01:07:00,VALID,915.237,VALID,0,VALID,98.9893,VALID,0.237732,VALID,21.4664,VALID,21,VALID,0,
2003-05-06, 01:08:00,VALID,915.22,VALID,0,VALID,98.9321,VALID,0.254712,VALID,21.4759,VALID,21,VALID,0,
2003-05-06, 01:09:00,VALID,915.227,VALID,0,VALID,98.9283,VALID,0.220751,VALID,21.4497,VALID,21,VALID,0,
2003-05-06, 01:10:00,VALID,915.227,VALID,0,VALID,98.9614,VALID,0.254712,VALID,21.4761,VALID,21,VALID,0,
2003-05-06, 01:11:00,VALID,915.229,VALID,0,VALID,98.8901,VALID,0.254712,VALID,21.4664,VALID,345,VALID,0.0879407,
2003-05-06, 01:12:00,VALID,915.231,VALID,0,VALID,98.8227,VALID,0.220751,VALID,21.4365,VALID,296,VALID,0.184211,
2003-05-06, 01:13:00,VALID,915.22,VALID,0,VALID,98.749,VALID,0.271693,VALID,21.4241,VALID,296,VALID,0.0484776,
2003-05-06, 01:14:00,VALID,915.201,VALID,0,VALID,98.7401,VALID,0.220751,VALID,21.4309,VALID,296,VALID,0,
2003-05-06, 01:15:00,VALID,915.207,VALID,0,VALID,98.749,VALID,0.135847,VALID,21.4276,VALID,296,VALID,0.21855,
2003-05-06, 01:16:00,VALID,915.201,VALID,0,VALID,98.7681,VALID,0.101885,VALID,21.4441,VALID,336,VALID,0.407399,
2003-05-06, 01:17:00,VALID,915.207,VALID,0,VALID,98.707,VALID,0.186789,VALID,21.4373,VALID,359,VALID,0.556836,
2003-05-06, 01:18:00,VALID,915.219,VALID,0,VALID,98.6854,VALID,0.237732,VALID,21.4241,VALID,7,VALID,0.578758,
2003-05-06, 01:19:00,VALID,915.223,VALID,0,VALID,98.7299,VALID,0.169808,VALID,21.4373,VALID,22,VALID,0.72207,
2003-05-06, 01:20:00,VALID,915.212,VALID,0,VALID,98.7604,VALID,0.169808,VALID,21.4567,VALID,24,VALID,0.952925,
2003-05-06, 01:21:00,VALID,915.211,VALID,0,VALID,98.7299,VALID,0.135847,VALID,21.4435,VALID,21,VALID,0.839939,
2003-05-06, 01:22:00,VALID,915.213,VALID,0,VALID,98.7617,VALID,0.152827,VALID,21.4465,VALID,21,VALID,0.789063,
2003-05-06, 01:23:00,VALID,915.206,VALID,0,VALID,98.7643,VALID,0.152827,VALID,21.4468,VALID,22,VALID,0.907853,
2003-05-06, 01:24:00,VALID,915.22,VALID,0,VALID,98.7261,VALID,0.135847,VALID,21.4403,VALID,17,VALID,0.736662,
2003-05-06, 01:25:00,VALID,915.239,VALID,0,VALID,98.6015,VALID,0.20377,VALID,21.4211,VALID,11,VALID,0.539474,
2003-05-06, 01:26:00,VALID,915.253,VALID,0,VALID,98.543,VALID,0.152827,VALID,21.3756,VALID,360,VALID,0.636619,
2003-05-06, 01:27:00,VALID,915.273,VALID,0,VALID,98.4896,VALID,0.271693,VALID,21.3427,VALID,8,VALID,0.477734,
2003-05-06, 01:28:00,VALID,915.295,VALID,0,VALID,98.5214,VALID,0.237732,VALID,21.3594,VALID,9,VALID,0.136218,
2003-05-06, 01:29:00,VALID,915.327,VALID,0,VALID,98.5659,VALID,0.220751,VALID,21.3621,VALID,9,VALID,0.00488281,
2003-05-06, 01:30:00,VALID,915.35,VALID,0,VALID,98.6015,VALID,0.271693,VALID,21.3791,VALID,9,VALID,0.213341,
2003-05-06, 01:31:00,VALID,915.374,VALID,0,VALID,98.6752,VALID,0.20377,VALID,21.4017,VALID,9,VALID,0.311166,
2003-05-06, 01:32:00,VALID,915.409,VALID,0,VALID,98.6905,VALID,0.237732,VALID,21.4241,VALID,9,VALID,0.293888,
2003-05-06, 01:33:00,VALID,915.419,VALID,0,VALID,98.7223,VALID,0.186789,VALID,21.4373,VALID,9,VALID,0.385485,
2003-05-06, 01:34:00,VALID,915.434,VALID,0,VALID,98.6422,VALID,0.237732,VALID,21.4241,VALID,10,VALID,0.478885,
2003-05-06, 01:35:00,VALID,915.446,VALID,0,VALID,98.6028,VALID,0.20377,VALID,21.4085,VALID,10,VALID,0.54603,
2003-05-06, 01:36:00,VALID,915.449,VALID,0,VALID,98.6613,VALID,0.254712,VALID,21.4114,VALID,9,VALID,0.44436,
2003-05-06, 01:37:00,VALID,915.445,VALID,0,VALID,98.6867,VALID,0.220751,VALID,21.4109,VALID,8,VALID,0.420025,
2003-05-06, 01:38:00,VALID,915.445,VALID,0,VALID,98.7007,VALID,0.237732,VALID,21.4044,VALID,7,VALID,0.179482,
2003-05-06, 01:39:00,VALID,915.443,VALID,0,VALID,98.6396,VALID,0.220751,VALID,21.395,VALID,13,VALID,0.37934,
2003-05-06, 01:40:00,VALID,915.448,VALID,0,VALID,98.6663,VALID,0.152827,VALID,21.3966,VALID,14,VALID,0.49082,
2003-05-06, 01:41:00,VALID,915.435,VALID,0,VALID,98.7859,VALID,0.118866,VALID,21.3999,VALID,20,VALID,0.486111,
2003-05-06, 01:42:00,VALID,915.42,VALID,0,VALID,98.8533,VALID,0.135847,VALID,21.4551,VALID,22,VALID,0.410457,
2003-05-06, 01:43:01,VALID,915.408,VALID,0,VALID,98.824,VALID,0.118866,VALID,21.4457,VALID,22,VALID,0.189063,
2003-05-06, 01:44:00,VALID,915.392,VALID,0,VALID,98.8914,VALID,0.152827,VALID,21.4522,VALID,22,VALID,0.296074,
2003-05-06, 01:45:00,VALID,915.373,VALID,0,VALID,98.8329,VALID,0.152827,VALID,21.4554,VALID,22,VALID,0.170272,
2003-05-06, 01:46:00,VALID,915.351,VALID,0,VALID,98.9168,VALID,0.118866,VALID,21.4613,VALID,21,VALID,0.434755,
2003-05-06, 01:47:00,VALID,915.316,VALID,0,VALID,98.927,VALID,0.186789,VALID,21.4872,VALID,15,VALID,0.444531,
2003-05-06, 01:48:00,VALID,915.295,VALID,0,VALID,98.8278,VALID,0.135847,VALID,21.4384,VALID,353,VALID,0.475195,
2003-05-06, 01:49:00,VALID,915.275,VALID,0,VALID,98.721,VALID,0.152827,VALID,21.4004,VALID,317,VALID,0.339286,
2003-05-06, 01:50:01,VALID,915.251,VALID,0,VALID,98.7337,VALID,0.101885,VALID,21.4007,VALID,313,VALID,0.378788,
2003-05-06, 01:51:00,VALID,915.221,VALID,0,VALID,98.7058,VALID,0.152827,VALID,21.3707,VALID,304,VALID,0.254687,
2003-05-06, 01:52:00,VALID,915.214,VALID,0,VALID,98.7465,VALID,0.20377,VALID,21.3678,VALID,304,VALID,0,
2003-05-06, 01:53:01,VALID,915.192,VALID,0,VALID,98.8126,VALID,0.169808,VALID,21.3707,VALID,304,VALID,0,
2003-05-06, 01:54:00,VALID,915.175,VALID,0,VALID,98.8787,VALID,0.20377,VALID,21.3802,VALID,304,VALID,0.00821314,
2003-05-06, 01:55:00,VALID,915.158,VALID,0,VALID,98.9283,VALID,0.237732,VALID,21.3885,VALID,351,VALID,0.37843,
2003-05-06, 01:56:00,VALID,915.137,VALID,0,VALID,99.0186,VALID,0.305655,VALID,21.4238,VALID,15,VALID,0.611486,
2003-05-06, 01:57:00,VALID,915.116,VALID,0,VALID,99.058,VALID,0.271693,VALID,21.4532,VALID,21,VALID,0.503405,
2003-05-06, 01:58:00,VALID,915.084,VALID,0,VALID,99.0377,VALID,0.271693,VALID,21.45,VALID,21,VALID,0.511133,
2003-05-06, 01:59:01,VALID,915.077,VALID,0,VALID,99.0351,VALID,0.271693,VALID,21.4565,VALID,21,VALID,0.614901,
2003-05-06, 02:00:00,VALID,915.065,VALID,0,VALID,99.1203,VALID,0.237732,VALID,21.4891,VALID,24,VALID,0.49721,
2003-05-06, 02:01:01,VALID,915.064,VALID,0,VALID,99.1712,VALID,0.373578,VALID,21.5147,VALID,28,VALID,0.324747,
2003-05-06, 02:02:01,VALID,915.073,VALID,0,VALID,99.2055,VALID,0.322636,VALID,21.5274,VALID,28,VALID,0.0924162,
2003-05-06, 02:03:00,VALID,915.079,VALID,0,VALID,99.1127,VALID,0.322636,VALID,21.4982,VALID,28,VALID,0.0230564,
2003-05-06, 02:04:00,VALID,915.069,VALID,0,VALID,99.1025,VALID,0.356597,VALID,21.4788,VALID,28,VALID,0.000211149,
2003-05-06, 02:05:00,VALID,915.082,VALID,0,VALID,99.1089,VALID,0.305655,VALID,21.4662,VALID,28,VALID,0.110352,
2003-05-06, 02:06:00,VALID,915.093,VALID,0,VALID,99.1165,VALID,0.305655,VALID,21.45,VALID,27,VALID,0.416071,
2003-05-06, 02:07:00,VALID,915.092,VALID,0,VALID,99.1763,VALID,0.288674,VALID,21.4592,VALID,27,VALID,0.366518,
2003-05-06, 02:08:00,VALID,915.107,VALID,0,VALID,99.1419,VALID,0.288674,VALID,21.4664,VALID,27,VALID,0.0962054,
2003-05-06, 02:09:00,VALID,915.094,VALID,0,VALID,99.1216,VALID,0.288674,VALID,21.4567,VALID,27,VALID,0,
2003-05-06, 02:10:00,VALID,915.103,VALID,0,VALID,99.1546,VALID,0.271693,VALID,21.4702,VALID,27,VALID,0,
2003-05-06, 02:11:01,VALID,915.089,VALID,0,VALID,99.175,VALID,0.220751,VALID,21.4699,VALID,27,VALID,0,
2003-05-06, 02:12:00,VALID,915.09,VALID,0,VALID,99.1686,VALID,0.322636,VALID,21.4575,VALID,27,VALID,0,
2003-05-06, 02:13:00,VALID,915.096,VALID,0,VALID,99.1559,VALID,0.271693,VALID,21.4435,VALID,27,VALID,0,
2003-05-06, 02:14:01,VALID,915.069,VALID,0,VALID,99.1534,VALID,0.237732,VALID,21.4538,VALID,27,VALID,0,
2003-05-06, 02:15:00,VALID,915.073,VALID,0,VALID,99.1788,VALID,0.271693,VALID,21.4535,VALID,27,VALID,0,
2003-05-06, 02:16:01,VALID,915.077,VALID,0,VALID,99.1406,VALID,0.339617,VALID,21.4667,VALID,30,VALID,0.12207,
2003-05-06, 02:17:00,VALID,915.07,VALID,0,VALID,99.0872,VALID,0.305655,VALID,21.4473,VALID,56,VALID,0.350761,
2003-05-06, 02:18:00,VALID,915.066,VALID,0,VALID,99.1127,VALID,0.339617,VALID,21.4379,VALID,59,VALID,0.153505,
2003-05-06, 02:19:01,VALID,915.063,VALID,0,VALID,99.1724,VALID,0.339617,VALID,21.4734,VALID,59,VALID,0.133614,
2003-05-06, 02:20:00,VALID,915.06,VALID,0,VALID,99.2042,VALID,0.305655,VALID,21.4767,VALID,59,VALID,0.156044,
2003-05-06, 02:21:00,VALID,915.047,VALID,0,VALID,99.1788,VALID,0.339617,VALID,21.477,VALID,59,VALID,0.417268,
2003-05-06, 02:22:00,VALID,915.042,VALID,0,VALID,99.175,VALID,0.322636,VALID,21.4732,VALID,59,VALID,0.118902,
2003-05-06, 02:23:00,VALID,915.027,VALID,0,VALID,99.161,VALID,0.305655,VALID,21.4899,VALID,59,VALID,0.0176282,
2003-05-06, 02:24:01,VALID,915.007,VALID,0,VALID,99.175,VALID,0.288674,VALID,21.4896,VALID,59,VALID,0.149816,
2003-05-06, 02:25:01,VALID,914.987,VALID,0,VALID,99.1241,VALID,0.322636,VALID,21.4869,VALID,9,VALID,0.315234,
2003-05-06, 02:26:00,VALID,914.979,VALID,0,VALID,99.0275,VALID,0.390559,VALID,21.4608,VALID,8,VALID,0.195101,
2003-05-06, 02:27:00,VALID,914.97,VALID,0,VALID,99.0911,VALID,0.305655,VALID,21.457,VALID,8,VALID,0.240625,
2003-05-06, 02:28:00,VALID,914.949,VALID,0,VALID,99.1139,VALID,0.339617,VALID,21.4794,VALID,14,VALID,0.399439,
2003-05-06, 02:29:01,VALID,914.93,VALID,0,VALID,99.0249,VALID,0.322636,VALID,21.4697,VALID,23,VALID,0.565358,
2003-05-06, 02:30:00,VALID,914.899,VALID,0,VALID,99.0504,VALID,0.356597,VALID,21.4858,VALID,23,VALID,0.130912,
2003-05-06, 02:31:00,VALID,914.876,VALID,0,VALID,99.0198,VALID,0.305655,VALID,21.4761,VALID,23,VALID,0,
2003-05-06, 02:32:00,VALID,914.837,VALID,0,VALID,99.0173,VALID,0.322636,VALID,21.4697,VALID,23,VALID,0.0203887,
2003-05-06, 02:33:01,VALID,914.804,VALID,0,VALID,99.0287,VALID,0.271693,VALID,21.4861,VALID,23,VALID,0.176398,
2003-05-06, 02:34:00,VALID,914.79,VALID,0,VALID,98.9639,VALID,0.220751,VALID,21.4635,VALID,23,VALID,0.157853,
2003-05-06, 02:35:00,VALID,914.772,VALID,0,VALID,98.9779,VALID,0.390559,VALID,21.4637,VALID,23,VALID,0.135937,
2003-05-06, 02:36:00,VALID,914.745,VALID,0,VALID,99.0109,VALID,0.339617,VALID,21.4829,VALID,23,VALID,0.0554888,
2003-05-06, 02:37:00,VALID,914.731,VALID,0,VALID,98.9308,VALID,0.356597,VALID,21.4891,VALID,23,VALID,0.00917969,
2003-05-06, 02:38:00,VALID,914.717,VALID,0,VALID,98.927,VALID,0.373578,VALID,21.4794,VALID,23,VALID,0,
2003-05-06, 02:39:00,VALID,914.698,VALID,0,VALID,98.8914,VALID,0.305655,VALID,21.4767,VALID,23,VALID,0,
2003-05-06, 02:40:00,VALID,914.677,VALID,0,VALID,98.9016,VALID,0.322636,VALID,21.4794,VALID,23,VALID,0,
2003-05-06, 02:41:00,VALID,914.671,VALID,0,VALID,98.8774,VALID,0.288674,VALID,21.4729,VALID,23,VALID,0.0511924,
2003-05-06, 02:42:00,VALID,914.668,VALID,0,VALID,98.8584,VALID,0.271693,VALID,21.4832,VALID,22,VALID,0.627111,
2003-05-06, 02:43:01,VALID,914.654,VALID,0,VALID,98.9092,VALID,0.305655,VALID,21.4853,VALID,12,VALID,0.912373,
2003-05-06, 02:44:00,VALID,914.652,VALID,0,VALID,98.9563,VALID,0.356597,VALID,21.5088,VALID,9,VALID,1.0484,
2003-05-06, 02:45:00,VALID,914.652,VALID,0,VALID,98.8736,VALID,0.288674,VALID,21.4888,VALID,9,VALID,0.979646,
2003-05-06, 02:46:01,VALID,914.632,VALID,0,VALID,98.7846,VALID,0.356597,VALID,21.4567,VALID,356,VALID,0.887336,
2003-05-06, 02:47:00,VALID,914.625,VALID,0,VALID,98.7503,VALID,0.322636,VALID,21.4214,VALID,338,VALID,0.887804,
2003-05-06, 02:48:01,VALID,914.619,VALID,0,VALID,98.7503,VALID,0.288674,VALID,21.3853,VALID,344,VALID,0.483984,
2003-05-06, 02:49:00,VALID,914.622,VALID,0,VALID,98.8367,VALID,0.271693,VALID,21.4017,VALID,6,VALID,0.874132,
2003-05-06, 02:50:01,VALID,914.615,VALID,0,VALID,98.8189,VALID,0.339617,VALID,21.3955,VALID,13,VALID,1.20092,
2003-05-06, 02:51:01,VALID,914.632,VALID,0,VALID,98.8749,VALID,0.288674,VALID,21.3689,VALID,20,VALID,1.04785,
2003-05-06, 02:52:00,VALID,914.631,VALID,0,VALID,98.9423,VALID,0.322636,VALID,21.3958,VALID,17,VALID,0.867588,
2003-05-06, 02:53:00,VALID,914.627,VALID,0,VALID,98.9842,VALID,0.339617,VALID,21.3958,VALID,24,VALID,0.604768,
2003-05-06, 02:54:00,VALID,914.632,VALID,0,VALID,99.0262,VALID,0.254712,VALID,21.4055,VALID,24,VALID,0.497044,
2003-05-06, 02:55:00,VALID,914.618,VALID,0,VALID,99.0694,VALID,0.356597,VALID,21.4185,VALID,23,VALID,0.29375,
2003-05-06, 02:56:00,VALID,914.622,VALID,0,VALID,99.0478,VALID,0.271693,VALID,21.4047,VALID,23,VALID,0.248047,
2003-05-06, 02:57:00,VALID,914.621,VALID,0,VALID,99.0237,VALID,0.237732,VALID,21.3891,VALID,20,VALID,0.229235,
2003-05-06, 02:58:01,VALID,914.628,VALID,0,VALID,98.9982,VALID,0.237732,VALID,21.3594,VALID,25,VALID,0.0553977,
2003-05-06, 02:59:00,VALID,914.619,VALID,0,VALID,98.9931,VALID,0.254712,VALID,21.3535,VALID,88,VALID,0.282617,
2003-05-06, 03:00:00,VALID,914.623,VALID,0,VALID,99.0135,VALID,0.322636,VALID,21.3573,VALID,97,VALID,0.284655,
2003-05-06, 03:01:01,VALID,914.632,VALID,0,VALID,98.9779,VALID,0.237732,VALID,21.3403,VALID,98,VALID,0.423828,
2003-05-06, 03:02:01,VALID,914.637,VALID,0,VALID,98.9614,VALID,0.288674,VALID,21.3209,VALID,93,VALID,0.582933,
2003-05-06, 03:03:00,VALID,914.637,VALID,0.2,VALID,98.9359,VALID,0.254712,VALID,21.292,VALID,92,VALID,0.397485,
2003-05-06, 03:04:00,VALID,914.635,VALID,0,VALID,98.9626,VALID,0.271693,VALID,21.2885,VALID,112,VALID,0.34016,
2003-05-06, 03:05:01,VALID,914.631,VALID,0,VALID,99.0224,VALID,0.220751,VALID,21.2893,VALID,143,VALID,0.523237,
2003-05-06, 03:06:00,VALID,914.628,VALID,0,VALID,99.0605,VALID,0.254712,VALID,21.2823,VALID,149,VALID,0.504687,
2003-05-06, 03:07:01,VALID,914.633,VALID,0,VALID,99.072,VALID,0.220751,VALID,21.2923,VALID,110,VALID,0.483613,
2003-05-06, 03:08:01,VALID,914.641,VALID,0,VALID,99.0872,VALID,0.169808,VALID,21.2988,VALID,135,VALID,0.550409,
2003-05-06, 03:09:01,VALID,914.665,VALID,0,VALID,99.0911,VALID,0.288674,VALID,21.2926,VALID,144,VALID,0.661106,
2003-05-06, 03:10:01,VALID,914.673,VALID,0,VALID,99.1012,VALID,0.237732,VALID,21.2923,VALID,148,VALID,0.619474,
2003-05-06, 03:11:00,VALID,914.68,VALID,0,VALID,99.0961,VALID,0.220751,VALID,21.2694,VALID,134,VALID,0.923399,
2003-05-06, 03:12:01,VALID,914.69,VALID,0,VALID,99.1356,VALID,0.271693,VALID,21.2597,VALID,148,VALID,0.783361,
2003-05-06, 03:13:01,VALID,914.686,VALID,0,VALID,99.1902,VALID,0.254712,VALID,21.2602,VALID,136,VALID,0.494727,
2003-05-06, 03:14:01,VALID,914.688,VALID,0.2,VALID,99.2589,VALID,0.237732,VALID,21.2662,VALID,131,VALID,0.161607,
2003-05-06, 03:15:00,VALID,914.688,VALID,0,VALID,99.3072,VALID,0.237732,VALID,21.2761,VALID,131,VALID,0.0890625,
2003-05-06, 03:16:00,VALID,914.695,VALID,0,VALID,99.3377,VALID,0.254712,VALID,21.2853,VALID,107,VALID,0.354464,
2003-05-06, 03:17:01,VALID,914.702,VALID,0,VALID,99.3047,VALID,0.220751,VALID,21.299,VALID,110,VALID,0.662373,
2003-05-06, 03:18:01,VALID,914.704,VALID,0.2,VALID,99.2627,VALID,0.254712,VALID,21.2794,VALID,111,VALID,0.576686,
2003-05-06, 03:19:01,VALID,914.704,VALID,0,VALID,99.2729,VALID,0.186789,VALID,21.247,VALID,95,VALID,0.61951,
2003-05-06, 03:20:01,VALID,914.694,VALID,0,VALID,99.3225,VALID,0.288674,VALID,21.2373,VALID,62,VALID,0.719367,
2003-05-06, 03:21:00,VALID,914.693,VALID,0,VALID,99.325,VALID,0.237732,VALID,21.2279,VALID,63,VALID,0.731291,
2003-05-06, 03:22:01,VALID,914.684,VALID,0,VALID,99.325,VALID,0.237732,VALID,21.2214,VALID,72,VALID,0.600195,
2003-05-06, 03:23:01,VALID,914.682,VALID,0,VALID,99.2958,VALID,0.220751,VALID,21.1988,VALID,90,VALID,0.73943,
2003-05-06, 03:24:01,VALID,914.672,VALID,0.2,VALID,99.3098,VALID,0.271693,VALID,21.1756,VALID,114,VALID,0.402734,
2003-05-06, 03:25:01,VALID,914.681,VALID,0,VALID,99.3479,VALID,0.20377,VALID,21.1761,VALID,119,VALID,0.46895,
2003-05-06, 03:26:01,VALID,914.678,VALID,0,VALID,99.3772,VALID,0.271693,VALID,21.1823,VALID,129,VALID,0.342272,
2003-05-06, 03:27:01,VALID,914.687,VALID,0,VALID,99.3835,VALID,0.271693,VALID,21.1893,VALID,137,VALID,0.633213,
2003-05-06, 03:28:01,VALID,914.677,VALID,0,VALID,99.3581,VALID,0.220751,VALID,21.1696,VALID,129,VALID,0.612664,
2003-05-06, 03:29:01,VALID,914.696,VALID,0,VALID,99.3657,VALID,0.271693,VALID,21.1731,VALID,132,VALID,0.618189,
2003-05-06, 03:30:01,VALID,914.713,VALID,0,VALID,99.3759,VALID,0.220751,VALID,21.15,VALID,141,VALID,0.859184,
2003-05-06, 03:31:01,VALID,914.729,VALID,0,VALID,99.3848,VALID,0.254712,VALID,21.1537,VALID,139,VALID,0.921274,
2003-05-06, 03:32:01,VALID,914.737,VALID,0,VALID,99.395,VALID,0.20377,VALID,21.1403,VALID,144,VALID,1.33961,
2003-05-06, 03:33:01,VALID,914.735,VALID,0.2,VALID,99.4064,VALID,0.254712,VALID,21.1338,VALID,158,VALID,1.5875,
2003-05-06, 03:34:01,VALID,914.727,VALID,0,VALID,99.4229,VALID,0.288674,VALID,21.144,VALID,143,VALID,0.862753,
2003-05-06, 03:35:01,VALID,914.725,VALID,0,VALID,99.4408,VALID,0.20377,VALID,21.1405,VALID,142,VALID,1.12012,